KD8ILV Weather Reports


Display with metric or nautical units.
time (UTC)temp
F
wind
direction
speed
MPH
gust
MPH
rain 1hr
in
rain 24hr
in
rain mn
in
humidity
%
barometer
mb
20260503173553 62 121 2.0 6.0 0.00 0.00 0.00 37 1019.2
20260503173057 62 196 1.0 9.0 0.00 0.00 0.00 41 1019.3
20260503172553 62 206 3.0 9.0 0.00 0.00 0.00 33 1019.2
20260503172053 63 188 1.0 6.0 0.00 0.00 0.00 36 1019.3
20260503171600 62 140 1.0 6.0 0.00 0.00 0.00 39 1019.4
20260503171053 63 354 1.0 6.0 0.00 0.00 0.00 36 1019.7
20260503170553 63 212 1.0 7.0 0.00 0.00 0.00 36 1019.9
20260503150554 57 231 1.0 4.0 0.00 0.00 0.00 45 1021.1
20260503140149 53 164 1.0 2.0 0.00 0.00 0.00 58 1021.0
20260503131052 50 0 1.0 4.0 0.00 0.00 0.00 58 1021.0
20260503130556 50 20 0.0 2.0 0.00 0.00 0.00 60 1021.0
20260503110552 36 0 0.0 0.0 0.00 0.00 0.00 82 1020.4
20260503110108 36 0 0.0 0.0 0.00 0.00 0.00 82 1020.4
20260503081556 35 0 0.0 0.0 0.00 0.00 0.00 86 1019.9
20260503081055 35 0 0.0 0.0 0.00 0.00 0.00 86 1019.9
20260503080556 35 0 0.0 0.0 0.00 0.00 0.00 86 1019.9
20260503072556 35 0 0.0 0.0 0.00 0.00 0.00 85 1019.8
20260503072051 35 0 0.0 0.0 0.00 0.00 0.00 85 1019.8
20260503071614 35 0 0.0 0.0 0.00 0.00 0.00 85 1019.8
20260503071053 35 0 0.0 0.0 0.00 0.00 0.00 85 1019.8
20260503070556 35 0 0.0 0.0 0.00 0.00 0.00 85 1019.8
20260503060118 35 0 0.0 0.0 0.00 0.00 0.00 83 1020.2
20260503055052 35 0 0.0 0.0 0.00 0.00 0.00 83 1020.3
20260503054601 35 0 0.0 0.0 0.00 0.00 0.00 82 1020.1
20260503054053 35 0 0.0 0.0 0.00 0.00 0.00 82 1020.3
20260503053553 36 0 0.0 0.0 0.00 0.00 0.00 82 1020.3
20260503053055 36 0 0.0 0.0 0.00 0.00 0.00 82 1020.2
20260503052553 36 0 0.0 0.0 0.00 0.00 0.00 82 1020.2
20260503052053 36 0 0.0 0.0 0.00 0.00 0.00 82 1020.3
20260503051556 36 0 0.0 0.0 0.00 0.00 0.00 82 1020.2
20260503051059 36 0 0.0 0.0 0.00 0.00 0.00 82 1020.2
20260503050552 36 0 0.0 0.0 0.00 0.00 0.00 82 1020.1
20260503050056 36 0 0.0 0.0 0.00 0.00 0.00 82 1020.1
20260503045555 36 0 0.0 0.0 0.00 0.00 0.00 82 1020.2
20260503045054 36 0 0.0 0.0 0.00 0.00 0.00 82 1020.2
20260503044552 36 0 0.0 0.0 0.00 0.00 0.00 82 1020.2
20260503044055 36 0 0.0 0.0 0.00 0.00 0.00 82 1020.2
20260503043552 36 0 0.0 0.0 0.00 0.00 0.00 82 1020.2
20260503043053 36 0 0.0 0.0 0.00 0.00 0.00 83 1020.1
20260503042555 36 0 0.0 0.0 0.00 0.00 0.00 83 1020.2
20260503042055 36 0 0.0 0.0 0.00 0.00 0.00 82 1020.2
20260503041554 36 0 0.0 0.0 0.00 0.00 0.00 82 1020.3
20260503041055 36 0 0.0 0.0 0.00 0.00 0.00 82 1020.2
20260503040554 36 0 0.0 0.0 0.00 0.00 0.00 81 1020.3
20260503040113 37 0 0.0 0.0 0.00 0.00 0.00 81 1020.3
20260503035552 37 0 0.0 0.0 0.00 0.00 0.00 81 1020.2
20260503035052 37 0 0.0 0.0 0.00 0.00 0.00 80 1020.2
20260503034553 37 0 0.0 0.0 0.00 0.00 0.00 80 1020.2
20260503034055 37 0 0.0 0.0 0.00 0.00 0.00 80 1020.2
20260503033552 37 0 0.0 0.0 0.00 0.00 0.00 80 1020.2
20260503033054 37 0 0.0 0.0 0.00 0.00 0.00 80 1020.3
20260503032555 37 0 0.0 0.0 0.00 0.00 0.00 80 1020.2
20260503032052 38 0 0.0 0.0 0.00 0.00 0.00 79 1020.3
20260503031604 38 0 0.0 0.0 0.00 0.00 0.00 78 1020.3
20260503031055 38 0 0.0 0.0 0.00 0.00 0.00 78 1020.4
20260503030556 38 0 0.0 0.0 0.00 0.00 0.00 76 1020.3
20260503030056 38 0 0.0 0.0 0.00 0.00 0.00 76 1020.3
20260503025556 38 0 0.0 0.0 0.00 0.00 0.00 76 1020.3
20260503025051 39 0 0.0 0.0 0.00 0.00 0.00 75 1020.2
20260503024554 39 0 0.0 0.0 0.00 0.00 0.00 75 1020.2
20260503024057 39 0 0.0 0.0 0.00 0.00 0.00 76 1020.2
20260503023556 39 0 0.0 0.0 0.00 0.00 0.00 74 1020.3
20260503023056 39 0 0.0 0.0 0.00 0.00 0.00 74 1020.3
20260503022554 39 0 0.0 0.0 0.00 0.00 0.00 73 1020.2
20260503022054 40 0 0.0 0.0 0.00 0.00 0.00 72 1020.2
20260503021601 40 0 0.0 0.0 0.00 0.00 0.00 72 1020.1
20260503021052 40 0 0.0 0.0 0.00 0.00 0.00 71 1020.0
20260503020552 40 0 0.0 0.0 0.00 0.00 0.00 71 1019.9
20260503020100 41 0 0.0 0.0 0.00 0.00 0.00 70 1019.9
20260503015551 41 0 0.0 0.0 0.00 0.00 0.00 70 1019.8
20260503015131 41 0 0.0 0.0 0.00 0.00 0.00 68 1019.8
20260503014609 41 0 0.0 0.0 0.00 0.00 0.00 68 1019.8
20260503014051 42 0 0.0 0.0 0.00 0.00 0.00 66 1019.7
20260503013555 42 0 0.0 0.0 0.00 0.00 0.00 68 1019.7
20260503013054 42 0 0.0 0.0 0.00 0.00 0.00 67 1019.7
20260503012552 42 0 0.0 0.0 0.00 0.00 0.00 65 1019.5
20260503012058 43 0 0.0 0.0 0.00 0.00 0.00 64 1019.4
20260503011611 43 0 0.0 0.0 0.00 0.00 0.00 64 1019.4
20260503011054 43 0 0.0 0.0 0.00 0.00 0.00 63 1019.3
20260503010555 44 0 0.0 0.0 0.00 0.00 0.00 62 1019.3
20260503010054 44 0 0.0 0.0 0.00 0.00 0.00 60 1019.3
20260503005555 44 0 0.0 0.0 0.00 0.00 0.00 59 1019.3
20260503005055 45 0 0.0 1.0 0.00 0.00 0.00 61 1019.3
20260503004556 45 0 0.0 1.0 0.00 0.00 0.00 61 1019.2
20260503004054 45 0 0.0 1.0 0.00 0.00 0.00 58 1019.2
20260503003551 46 0 0.0 1.0 0.00 0.00 0.00 57 1019.1
20260503003055 46 0 0.0 2.0 0.00 0.00 0.00 60 1019.2
20260503002555 46 210 0.0 3.0 0.00 0.00 0.00 58 1019.1
20260503002055 47 214 0.0 3.0 0.00 0.00 0.00 59 1019.0
20260503001620 47 0 0.0 1.0 0.00 0.00 0.00 56 1018.9
20260503001054 48 0 0.0 1.0 0.00 0.00 0.00 56 1018.9
20260503000555 48 210 0.0 4.0 0.00 0.00 0.00 55 1018.9
20260503000121 49 0 0.0 4.0 0.00 0.00 0.00 55 1018.8
20260502235554 49 0 0.0 3.0 0.00 0.00 0.00 53 1018.6
20260502235055 49 0 0.0 3.0 0.00 0.00 0.00 51 1018.7
20260502234605 50 0 0.0 2.0 0.00 0.00 0.00 56 1018.7
20260502234052 50 131 0.0 2.0 0.00 0.00 0.00 53 1018.6
20260502233552 50 0 0.0 2.0 0.00 0.00 0.00 53 1018.6
20260502233054 50 151 0.0 3.0 0.00 0.00 0.00 54 1018.5
20260502232554 50 0 0.0 3.0 0.00 0.00 0.00 52 1018.6
20260502232054 50 219 0.0 2.0 0.00 0.00 0.00 51 1018.5
20260502231552 51 0 0.0 2.0 0.00 0.00 0.00 50 1018.6
20260502231052 51 171 0.0 2.0 0.00 0.00 0.00 50 1018.5
20260502230555 51 0 0.0 2.0 0.00 0.00 0.00 47 1018.5
20260502230053 51 207 0.0 3.0 0.00 0.00 0.00 52 1018.5
20260502225552 51 0 0.0 3.0 0.00 0.00 0.00 52 1018.5
20260502225054 51 129 0.0 6.0 0.00 0.00 0.00 50 1018.4
20260502224558 51 129 0.0 6.0 0.00 0.00 0.00 50 1018.4
20260502224103 51 161 0.0 0.0 0.00 0.00 0.00 49 1018.4
20260502223552 51 0 0.0 0.0 0.00 0.00 0.00 51 1018.4
20260502223055 51 0 0.0 0.0 0.00 0.00 0.00 50 1018.3
20260502222551 52 0 0.0 2.0 0.00 0.00 0.00 47 1018.2
20260502222052 52 0 0.0 3.0 0.00 0.00 0.00 51 1018.3
20260502221552 52 0 0.0 3.0 0.00 0.00 0.00 46 1018.3
20260502221054 52 123 0.0 3.0 0.00 0.00 0.00 48 1018.2
20260502220555 52 0 1.0 4.0 0.00 0.00 0.00 44 1018.3
20260502220054 52 30 0.0 4.0 0.00 0.00 0.00 48 1018.3
20260502215555 52 152 0.0 3.0 0.00 0.00 0.00 46 1018.3
20260502215053 52 0 0.0 3.0 0.00 0.00 0.00 50 1018.2
20260502214556 53 0 0.0 3.0 0.00 0.00 0.00 49 1018.2
20260502214054 53 85 1.0 5.0 0.00 0.00 0.00 47 1018.1
20260502213551 53 192 0.0 5.0 0.00 0.00 0.00 43 1018.0
20260502213052 54 153 0.0 4.0 0.00 0.00 0.00 41 1018.1
20260502212554 54 202 0.0 8.0 0.00 0.00 0.00 43 1018.1
20260502212054 54 210 1.0 8.0 0.00 0.00 0.00 43 1018.0
20260502211555 54 269 1.0 4.0 0.00 0.00 0.00 46 1018.0
20260502211054 55 0 0.0 1.0 0.00 0.00 0.00 41 1018.1
20260502210551 56 198 0.0 2.0 0.00 0.00 0.00 39 1018.0
20260502210106 56 78 0.0 2.0 0.00 0.00 0.00 41 1018.0
20260502205554 56 53 0.0 3.0 0.00 0.00 0.00 42 1018.0
20260502205052 56 205 0.0 4.0 0.00 0.00 0.00 41 1017.9
20260502204558 57 193 1.0 4.0 0.00 0.00 0.00 38 1018.0
20260502204054 58 238 0.0 4.0 0.00 0.00 0.00 37 1018.0
20260502203555 58 163 1.0 3.0 0.00 0.00 0.00 42 1017.9
20260502203056 58 183 0.0 3.0 0.00 0.00 0.00 41 1017.9
20260502202554 57 205 0.0 3.0 0.00 0.00 0.00 39 1018.0
20260502202054 57 77 1.0 8.0 0.00 0.00 0.00 40 1018.1
20260502201556 56 11 1.0 8.0 0.00 0.00 0.00 43 1018.2
20260502201051 56 205 1.0 8.0 0.00 0.00 0.00 42 1018.2
20260502200554 56 158 0.0 4.0 0.00 0.00 0.00 45 1018.2
20260502200056 56 358 1.0 4.0 0.00 0.00 0.00 41 1018.2
20260502195551 56 200 1.0 3.0 0.00 0.00 0.00 44 1018.3
20260502195054 55 217 0.0 4.0 0.00 0.00 0.00 42 1018.2
20260502194556 55 200 1.0 5.0 0.00 0.00 0.00 40 1018.2
20260502194055 55 153 1.0 5.0 0.00 0.00 0.00 43 1018.3
20260502193552 55 255 1.0 3.0 0.00 0.00 0.00 40 1018.3
20260502193059 55 169 1.0 3.0 0.00 0.00 0.00 41 1018.2
20260502192552 55 257 1.0 2.0 0.00 0.00 0.00 41 1018.3
20260502192054 55 131 1.0 4.0 0.00 0.00 0.00 44 1018.3
20260502191601 55 169 1.0 8.0 0.00 0.00 0.00 43 1018.3
20260502191054 55 226 1.0 8.0 0.00 0.00 0.00 42 1018.4
20260502190554 55 200 0.0 3.0 0.00 0.00 0.00 45 1018.3
20260502190109 55 0 0.0 4.0 0.00 0.00 0.00 41 1018.4
20260502185554 54 132 1.0 4.0 0.00 0.00 0.00 46 1018.6
20260502185054 54 185 1.0 3.0 0.00 0.00 0.00 44 1018.5
20260502184600 55 202 0.0 2.0 0.00 0.00 0.00 45 1018.5
20260502184054 54 195 0.0 3.0 0.00 0.00 0.00 48 1018.5
20260502183554 54 218 1.0 4.0 0.00 0.00 0.00 45 1018.7
20260502183109 53 200 0.0 4.0 0.00 0.00 0.00 49 1018.5
20260502182553 53 214 0.0 4.0 0.00 0.00 0.00 44 1018.7
20260502182051 53 24 0.0 4.0 0.00 0.00 0.00 45 1018.7
20260502181557 53 94 1.0 4.0 0.00 0.00 0.00 46 1018.8
20260502181051 54 199 1.0 4.0 0.00 0.00 0.00 44 1018.7
20260502180554 54 0 0.0 4.0 0.00 0.00 0.00 44 1018.9